TimeCET,TemperatureF,Dew PointF,Humidity,Sea Level PressureIn,VisibilityMPH,Wind Direction,Wind SpeedMPH,Gust SpeedMPH,PrecipitationIn,Events,Conditions,WindDirDegrees,DateUTC
12:00 AM,46.4,42.8,87,29.80,-9999.0,Calm,Calm,-,N/A,,Clear,0,2013-03-18 23:00:00
12:30 AM,44.6,41.0,87,29.80,-9999.0,Calm,Calm,-,N/A,,Clear,0,2013-03-18 23:30:00
1:00 AM,42,38,82,29.79,12,Calm,Calm,,,,Partly Cloudy,,2013-03-19 00:00:00
1:00 AM,44.6,41.0,87,29.77,6.2,Calm,Calm,-,N/A,,Scattered Clouds,0,2013-03-19 00:00:00
1:30 AM,46.4,42.8,87,29.77,6.2,Calm,Calm,-,N/A,,Mostly Cloudy,0,2013-03-19 00:30:00
2:00 AM,46.4,42.8,87,29.77,6.2,Variable,1.2,-,N/A,,Scattered Clouds,0,2013-03-19 01:00:00
2:30 AM,44.6,42.8,93,29.77,6.2,Variable,1.2,-,N/A,,Scattered Clouds,0,2013-03-19 01:30:00
3:00 AM,44.6,42.8,93,29.74,6.2,NNW,2.3,-,N/A,,Scattered Clouds,340,2013-03-19 02:00:00
3:30 AM,46.4,44.6,93,29.74,6.2,Calm,Calm,-,N/A,,Mostly Cloudy,0,2013-03-19 02:30:00
4:00 AM,48.2,46.4,93,29.74,6.2,Calm,Calm,-,N/A,,Mostly Cloudy,0,2013-03-19 03:00:00
4:30 AM,46.4,44.6,93,29.74,5.0,Variable,2.3,-,N/A,,Mostly Cloudy,0,2013-03-19 03:30:00
5:00 AM,48.2,46.4,93,29.74,5.0,Variable,2.3,-,N/A,,Scattered Clouds,0,2013-03-19 04:00:00
5:30 AM,46.4,44.6,93,29.74,5.0,NE,2.3,-,N/A,,Scattered Clouds,50,2013-03-19 04:30:00
6:00 AM,46.4,44.6,93,29.74,5.0,NNE,2.3,-,N/A,,Scattered Clouds,20,2013-03-19 05:00:00
6:30 AM,46.4,46.4,100,29.74,5.0,NNW,2.3,-,N/A,,Scattered Clouds,340,2013-03-19 05:30:00
7:00 AM,47,45,90,29.76,5,NNW,3.5,,,,Mist,340,2013-03-19 06:00:00
7:00 AM,48.2,46.4,93,29.74,5.0,Variable,2.3,-,N/A,,Scattered Clouds,0,2013-03-19 06:00:00
7:30 AM,50.0,48.2,94,29.74,3.1,Variable,1.2,-,N/A,,Scattered Clouds,0,2013-03-19 06:30:00
8:00 AM,48.2,48.2,100,29.74,5.0,Calm,Calm,-,N/A,Fog,Fog,0,2013-03-19 07:00:00
8:30 AM,50.0,48.2,94,29.74,5.0,East,3.5,-,N/A,Fog,Mostly Cloudy,90,2013-03-19 07:30:00
8:34 AM,51.8,50.0,94,29.74,5.0,East,3.5,-,N/A,Fog,Fog,80,2013-03-19 07:34:00
9:00 AM,53.6,51.8,94,29.74,5.6,ESE,4.6,-,N/A,Fog,Partly Cloudy,110,2013-03-19 08:00:00
9:30 AM,55.4,51.8,88,29.74,6.2,Variable,2.3,-,N/A,Fog,Partly Cloudy,0,2013-03-19 08:30:00
10:00 AM,57.2,53.6,88,29.74,6.2,NNE,3.5,-,N/A,,Partly Cloudy,20,2013-03-19 09:00:00
10:30 AM,60.8,53.6,77,29.74,6.2,Variable,1.2,-,N/A,,Partly Cloudy,0,2013-03-19 09:30:00
11:00 AM,60.8,53.6,77,29.74,6.2,Calm,Calm,-,N/A,,Partly Cloudy,0,2013-03-19 10:00:00
11:30 AM,62.6,53.6,72,29.71,6.2,SW,6.9,-,N/A,,Partly Cloudy,220,2013-03-19 10:30:00
12:00 PM,60.8,53.6,77,29.71,6.2,West,8.1,-,N/A,,Scattered Clouds,260,2013-03-19 11:00:00
12:30 PM,62.6,53.6,72,29.71,6.2,West,8.1,-,N/A,,Partly Cloudy,260,2013-03-19 11:30:00
1:00 PM,62,50,56,29.70,12,WSW,10.4,,,,Partly Cloudy,240,2013-03-19 12:00:00
1:00 PM,62.6,53.6,72,29.68,6.2,West,10.4,-,N/A,,Scattered Clouds,260,2013-03-19 12:00:00
1:30 PM,62.6,51.8,68,29.68,6.2,WSW,4.6,-,N/A,,Scattered Clouds,250,2013-03-19 12:30:00
2:00 PM,62.6,53.6,72,29.65,6.2,SW,13.8,-,N/A,,Partly Cloudy,220,2013-03-19 13:00:00
2:30 PM,62.6,53.6,72,29.65,6.2,SW,12.7,-,N/A,,Partly Cloudy,230,2013-03-19 13:30:00
3:00 PM,62.6,51.8,68,29.65,6.2,SW,12.7,-,N/A,,Partly Cloudy,230,2013-03-19 14:00:00
3:30 PM,60.8,51.8,72,29.62,6.2,SW,11.5,-,N/A,,Partly Cloudy,220,2013-03-19 14:30:00
4:00 PM,62.6,50.0,63,29.62,6.2,SW,13.8,-,N/A,,Partly Cloudy,220,2013-03-19 15:00:00
4:30 PM,60.8,51.8,72,29.62,6.2,SW,12.7,-,N/A,,Partly Cloudy,230,2013-03-19 15:30:00
5:00 PM,60.8,51.8,72,29.62,6.2,SW,11.5,-,N/A,,Partly Cloudy,230,2013-03-19 16:00:00
5:30 PM,59.0,53.6,82,29.62,6.2,SW,11.5,-,N/A,,Partly Cloudy,220,2013-03-19 16:30:00
6:00 PM,59.0,53.6,82,29.62,6.2,SW,8.1,-,N/A,,Partly Cloudy,220,2013-03-19 17:00:00
6:30 PM,57.2,53.6,88,29.62,6.2,SW,6.9,-,N/A,,Partly Cloudy,230,2013-03-19 17:30:00
7:00 PM,56,50,73,29.62,11,SSW,8.1,,,,Scattered Clouds,200,2013-03-19 18:00:00
7:00 PM,57.2,53.6,88,29.59,6.2,SW,4.6,-,N/A,,Partly Cloudy,220,2013-03-19 18:00:00
7:30 PM,57.2,51.8,82,29.59,6.2,SW,1.2,-,N/A,,Partly Cloudy,220,2013-03-19 18:30:00
8:00 PM,57.2,51.8,82,29.62,6.2,SW,2.3,-,N/A,,Partly Cloudy,220,2013-03-19 19:00:00
8:30 PM,53.6,50.0,88,29.62,6.2,Calm,Calm,-,N/A,,Partly Cloudy,0,2013-03-19 19:30:00
9:00 PM,53.6,51.8,94,29.62,6.2,ESE,1.2,-,N/A,,Partly Cloudy,110,2013-03-19 20:00:00
9:30 PM,51.8,50.0,94,29.62,6.2,Variable,1.2,-,N/A,,Partly Cloudy,0,2013-03-19 20:30:00
10:00 PM,51.8,50.0,94,29.62,6.2,NE,2.3,-,N/A,,Scattered Clouds,40,2013-03-19 21:00:00
10:30 PM,53.6,51.8,94,29.62,6.2,Variable,1.2,-,N/A,,Scattered Clouds,0,2013-03-19 21:30:00
11:00 PM,50.0,48.2,94,29.59,6.2,Calm,Calm,-,N/A,,Scattered Clouds,0,2013-03-19 22:00:00